Overview Statistics Trail Chart Weather Telemetry Raw packets
 

This is the latest recevied weather packets stored in our database for station/object HB9FHL-13. If no packets are shown the sender has not sent any weather packets the latest 10 day(s).

<< 68 69 70 71 72 73 74 >>
Time Temp. Humidity Pressure Rain* Wind** Luminosity Snow
1788253836 17.78° C - 1023.7 hPa 0 mm - - -
1788253800 17.78° C - 1023.7 hPa 0 mm - - -
1788253499 17.78° C - 1022.7 hPa 0 mm - - -
1788253199 18.33° C - 1024.7 hPa 0 mm - - -
1788252897 18.33° C - 1025.2 hPa 0 mm - - -
1788252596 17.78° C - 1023.6 hPa 0 mm - - -
1788251995 18.33° C - 1023.1 hPa 0 mm - - -
1788251695 18.33° C - 1025.6 hPa 0 mm - - -
1788251430 17.78° C - 1024 hPa 0 mm - - -
1788251394 17.78° C - 1024 hPa 0 mm - - -
1788251094 17.78° C - 1023.7 hPa 0 mm - - -
1788250796 18.33° C - 1027.6 hPa 0 mm - - -
1788250493 17.22° C - 1025.1 hPa 0 mm - - -
1788250192 18.33° C - 1022.8 hPa 0 mm - - -
1788249891 17.78° C - 1022.3 hPa 0 mm - - -
1788249289 17.78° C - 1022.8 hPa 0 mm - - -
1788248987 17.22° C - 1026.1 hPa 0 mm - - -
1788248083 16.67° C - 1023.5 hPa 0 mm - - -
1788247833 17.22° C - 1022 hPa 0 mm - - -
1788247782 17.22° C - 1022 hPa 0 mm - - -
1788247482 18.33° C - 1024.9 hPa 0 mm - - -
1788247181 17.78° C - 1024.2 hPa 0 mm - - -
1788246881 17.22° C - 1022.5 hPa 0 mm - - -
1788246580 18.33° C - 1023.8 hPa 0 mm - - -
1788246280 16.67° C - 1025.3 hPa 0 mm - - -

* Rain since midnight (hover to see other rain measurements)
** Current wind speed in m/s (hover to see current wind gust speed)